When you browse on this site, cookies collect data to enhance your experience and personalize the content and advertising you see.
Visit our Privacy Policy to learn more. By continuing to use the site, you agree to this use of cookies and data.
  • In Czech Republic
  • List of Countries
  • For 7 days
  • Water Temperature
  • Satellite Maps
  • Weather Map
  • Weather Widgets
  • user-avatar
    Login

    Hourly Weather Sharan

    Today, 23 March, Saturday

    Time Temperature Precipitation Wind Pressure Humidity
    00:00 +6°C° 0.3 mm 1 mps 586 mmHg 82%
    01:00 +6°C° 0.3 mm 1 mps 586 mmHg 84%
    02:00 +6°C° 0.3 mm 1 mps 586 mmHg 86%
    03:00 +6°C° 0.4 mm 1 mps 586 mmHg 86%
    04:00 +5°C° 0.4 mm 1 mps 586 mmHg 86%
    05:00 +6°C° 0 mm 1 mps 585 mmHg 88%
    06:00 +6°C° 0.8 mm 1 mps 586 mmHg 88%
    07:00 +6°C° 0.8 mm 1 mps 586 mmHg 88%
    08:00 +6°C° 0.8 mm 1 mps 586 mmHg 88%
    09:00 +6°C° 0.2 mm 1 mps 586 mmHg 85%
    10:00 +7°C° 0.2 mm 1 mps 587 mmHg 81%
    11:00 +8°C° 0 mm 1 mps 587 mmHg 77%
    12:00 +9°C° 0.2 mm 1 mps 587 mmHg 73%
    13:00 +9°C° 0.2 mm 2 mps 587 mmHg 68%
    14:00 +9°C° 0.2 mm 2 mps 587 mmHg 63%
    15:00 +9°C° 0.1 mm 2 mps 587 mmHg 61%
    16:00 +9°C° 0.1 mm 3 mps 587 mmHg 58%
    17:00 +8°C° 0 mm 2 mps 586 mmHg 66%
    18:00 +7°C° 0 mm 2 mps 586 mmHg 68%
    19:00 +8°C° 0 mm 1 mps 586 mmHg 70%
    20:00 +7°C° 0 mm 1 mps 586 mmHg 71%
    21:00 +7°C° 0 mm 1 mps 586 mmHg 72%
    22:00 +7°C° 0 mm 1 mps 586 mmHg 73%
    23:00 +6°C° 0 mm 1 mps 587 mmHg 74%

    Tomorrow, 24 March, Sunday

    Time Temperature Precipitation Wind Pressure Humidity
    00:00 +6°C° 0 mm 1 mps 586 mmHg 75%
    01:00 +6°C° 0 mm 1 mps 586 mmHg 76%
    02:00 +5°C° 0 mm 1 mps 586 mmHg 76%
    03:00 +4°C° 0 mm 2 mps 586 mmHg 76%
    04:00 +4°C° 0 mm 2 mps 586 mmHg 76%
    05:00 +3°C° 0 mm 2 mps 585 mmHg 76%
    06:00 +3°C° 0 mm 2 mps 586 mmHg 73%
    07:00 +5°C° 0 mm 1 mps 586 mmHg 71%
    08:00 +5°C° 0 mm 1 mps 586 mmHg 68%
    09:00 +6°C° 0 mm 1 mps 587 mmHg 63%
    10:00 +8°C° 0 mm 1 mps 587 mmHg 58%
    11:00 +9°C° 0 mm 1 mps 587 mmHg 53%
    12:00 +10°C° 0 mm 1 mps 587 mmHg 49%
    13:00 +10°C° 0 mm 2 mps 588 mmHg 44%
    14:00 +12°C° 0 mm 2 mps 588 mmHg 39%
    15:00 +10°C° 0 mm 2 mps 587 mmHg 38%
    16:00 +10°C° 0 mm 2 mps 587 mmHg 37%
    17:00 +10°C° 0 mm 3 mps 587 mmHg 37%
    18:00 +9°C° 0 mm 2 mps 587 mmHg 41%
    19:00 +8°C° 0 mm 2 mps 586 mmHg 45%
    20:00 +7°C° 0 mm 2 mps 586 mmHg 49%
    21:00 +6°C° 0 mm 2 mps 586 mmHg 51%
    22:00 +6°C° 0 mm 2 mps 586 mmHg 54%
    23:00 +5°C° 0 mm 2 mps 586 mmHg 56%

    Day after tomorrow, 25 March, Monday

    Time Temperature Precipitation Wind Pressure Humidity
    00:00 +5°C° 0 mm 2 mps 586 mmHg 58%
    01:00 +5°C° 0 mm 2 mps 586 mmHg 59%
    02:00 +3°C° 0 mm 3 mps 585 mmHg 61%
    03:00 +4°C° 0 mm 2 mps 585 mmHg 61%
    04:00 +3°C° 0 mm 2 mps 585 mmHg 62%
    05:00 +3°C° 0 mm 2 mps 585 mmHg 62%
    06:00 +3°C° 0 mm 2 mps 585 mmHg 58%
    07:00 +4°C° 0 mm 2 mps 586 mmHg 53%
    08:00 +4°C° 0 mm 2 mps 586 mmHg 49%
    09:00 +6°C° 0 mm 2 mps 587 mmHg 42%
    10:00 +7°C° 0 mm 2 mps 588 mmHg 34%
    11:00 +9°C° 0 mm 2 mps 588 mmHg 27%
    12:00 +10°C° 0 mm 2 mps 588 mmHg 26%
    13:00 +11°C° 0 mm 3 mps 588 mmHg 25%
    14:00 +12°C° 0 mm 3 mps 589 mmHg 23%
    15:00 +13°C° 0 mm 2 mps 588 mmHg 23%
    16:00 +13°C° 0 mm 2 mps 588 mmHg 22%
    17:00 +13°C° 0 mm 2 mps 588 mmHg 22%
    18:00 +12°C° 0 mm 1 mps 588 mmHg 28%
    19:00 +11°C° 0 mm 1 mps 587 mmHg 33%
    20:00 +8°C° 0 mm 0 mps 587 mmHg 39%
    21:00 +9°C° 0 mm 1 mps 587 mmHg 41%
    22:00 +8°C° 0 mm 1 mps 587 mmHg 42%
    23:00 +8°C° 0 mm 1 mps 588 mmHg 43%

    26 March, Tuesday

    Time Temperature Precipitation Wind Pressure Humidity
    00:00 +7°C° 0 mm 1 mps 587 mmHg 44%
    01:00 +7°C° 0 mm 1 mps 587 mmHg 45%
    02:00 +6°C° 0 mm 1 mps 587 mmHg 46%
    03:00 +6°C° 0 mm 1 mps 586 mmHg 48%
    04:00 +6°C° 0 mm 1 mps 586 mmHg 49%
    05:00 +5°C° 0 mm 1 mps 586 mmHg 50%
    06:00 +6°C° 0 mm 1 mps 587 mmHg 47%
    07:00 +7°C° 0 mm 1 mps 587 mmHg 44%
    08:00 +6°C° 0 mm 2 mps 588 mmHg 41%
    09:00 +9°C° 0 mm 1 mps 589 mmHg 37%
    10:00 +10°C° 0 mm 1 mps 589 mmHg 32%
    11:00 +12°C° 0 mm 1 mps 590 mmHg 27%
    12:00 +13°C° 0 mm 1 mps 590 mmHg 26%
    13:00 +14°C° 0 mm 1 mps 590 mmHg 25%
    14:00 +15°C° 0 mm 2 mps 590 mmHg 24%
    15:00 +14°C° 0 mm 3 mps 590 mmHg 25%
    16:00 +16°C° 0 mm 3 mps 590 mmHg 27%
    17:00 +15°C° 0 mm 4 mps 590 mmHg 28%
    18:00 +14°C° 0 mm 3 mps 590 mmHg 33%
    19:00 +14°C° 0 mm 2 mps 590 mmHg 37%
    20:00 +13°C° 0 mm 2 mps 590 mmHg 42%
    21:00 +12°C° 0 mm 1 mps 590 mmHg 46%
    22:00 +12°C° 0 mm 1 mps 590 mmHg 51%
    23:00 +11°C° 0 mm 1 mps 590 mmHg 55%

    27 March, Wednesday

    Time Temperature Precipitation Wind Pressure Humidity
    00:00 +10°C° 0 mm 1 mps 589 mmHg 59%
    01:00 +10°C° 0 mm 1 mps 589 mmHg 63%
    02:00 +8°C° 0 mm 2 mps 588 mmHg 67%
    03:00 +9°C° 0 mm 1 mps 588 mmHg 71%
    04:00 +8°C° 0 mm 1 mps 587 mmHg 75%
    05:00 +7°C° 0 mm 0 mps 587 mmHg 79%
    06:00 +9°C° 0 mm 1 mps 588 mmHg 76%
    07:00 +9°C° 0 mm 1 mps 588 mmHg 73%
    08:00 +10°C° 0 mm 1 mps 589 mmHg 71%
    09:00 +10°C° 0 mm 2 mps 589 mmHg 66%
    10:00 +12°C° 0 mm 3 mps 590 mmHg 61%
    11:00 +13°C° 0 mm 4 mps 590 mmHg 56%
    12:00 +14°C° 0 mm 5 mps 590 mmHg 52%
    13:00 +15°C° 0 mm 6 mps 591 mmHg 48%
    14:00 +17°C° 0 mm 7 mps 591 mmHg 45%
    15:00 +17°C° 0 mm 7 mps 590 mmHg 43%
    16:00 +17°C° 0 mm 6 mps 590 mmHg 42%
    17:00 +17°C° 0 mm 6 mps 590 mmHg 40%
    18:00 +16°C° 0 mm 6 mps 590 mmHg 43%
    19:00 +15°C° 0 mm 6 mps 590 mmHg 45%
    20:00 +14°C° 0 mm 5 mps 590 mmHg 48%
    21:00 +13°C° 0 mm 5 mps 590 mmHg 50%
    22:00 +13°C° 0 mm 4 mps 590 mmHg 53%
    23:00 +12°C° 0 mm 3 mps 590 mmHg 56%

    28 March, Thursday

    Time Temperature Precipitation Wind Pressure Humidity
    00:00 +12°C° 0 mm 3 mps 589 mmHg 58%
    01:00 +11°C° 0 mm 3 mps 589 mmHg 61%
    02:00 +10°C° 0 mm 2 mps 588 mmHg 63%
    03:00 +10°C° 0 mm 2 mps 588 mmHg 65%
    04:00 +10°C° 0 mm 3 mps 588 mmHg 67%
    05:00 +10°C° 0 mm 3 mps 588 mmHg 69%
    06:00 +10°C° 0 mm 3 mps 588 mmHg 68%
    07:00 +10°C° 0 mm 3 mps 589 mmHg 66%
    08:00 +11°C° 0 mm 3 mps 589 mmHg 65%
    09:00 +12°C° 0 mm 3 mps 590 mmHg 59%
    10:00 +13°C° 0 mm 4 mps 591 mmHg 52%
    11:00 +15°C° 0 mm 5 mps 591 mmHg 46%
    12:00 +16°C° 0 mm 6 mps 591 mmHg 42%
    13:00 +16°C° 0 mm 6 mps 591 mmHg 39%
    14:00 +17°C° 0 mm 6 mps 590 mmHg 35%
    15:00 +17°C° 0 mm 6 mps 590 mmHg 35%
    16:00 +17°C° 0 mm 5 mps 590 mmHg 34%
    17:00 +17°C° 0 mm 5 mps 589 mmHg 33%
    18:00 +17°C° 0 mm 4 mps 589 mmHg 37%
    19:00 +16°C° 0 mm 3 mps 589 mmHg 41%
    20:00 +15°C° 0 mm 2 mps 588 mmHg 45%
    21:00 +14°C° 0.1 mm 2 mps 588 mmHg 48%
    22:00 +13°C° 0.1 mm 2 mps 588 mmHg 52%
    23:00 +12°C° 0.1 mm 2 mps 588 mmHg 55%
    Show more